Theta_e
335 335 335 333 341 339 338 336 326 318 320 325 326 328 329 329 329 329 328 325 324 322 321 322 323 325 325 326 327 327 327 324 323 323 324 324 324 325
327 329 333 337 339 334 337 337 335 327 320 325 325 327 328 328 330 329 327 326 322 321 321 320 320 321 321 321 323 325 324 322 322 321 321 320 320 320
333 332 332 334 333 332 336 332 328 327 320 323 325 326 324 326 327 328 328 327 326 320 321 319 318 319 320 321 322 322 319 317 316 315 315 315 315 315
330 331 332 332 332 332 333 332 330 327 323 319 323 324 325 326 326 325 325 326 326 320 318 317 316 317 318 318 315 313 311 311 312 312 312 312 312 311
330 329 331 332 327 327 329 333 331 327 327 323 321 324 324 325 324 325 324 324 324 321 316 315 315 314 313 311 309 307 305 305 305 306 307 307 307 307
331 332 331 330 326 327 329 330 330 328 325 324 321 321 322 323 323 320 319 321 321 321 315 315 313 311 309 308 307 305 303 301 301 301 301 301 301 301
334 332 332 328 323 325 330 332 328 324 324 321 320 320 319 319 318 322 321 322 324 323 317 316 316 314 313 308 306 303 301 300 300 300 299 298 298 299
332 332 331 325 320 313 315 316 323 324 322 320 319 318 320 320 321 319 323 322 319 327 323 318 319 316 313 308 301 300 300 299 299 299 299 298 297 297
332 328 327 330 327 324 312 312 311 311 318 324 321 321 319 321 320 323 325 325 323 323 320 314 316 310 307 302 299 298 298 298 298 298 297 297 297 296
331 334 332 331 325 328 327 323 320 321 324 326 325 325 326 328 329 331 331 330 327 321 324 314 316 311 309 304 297 297 296 296 296 296 296 296 295 296
334 332 332 331 305 309 325 320 318 313 306 307 309 311 307 311 321 329 324 323 320 322 324 318 316 312 311 306 300 296 295 295 295 295 295 295 295 295
331 331 308 318 302 307 326 327 320 318 319 323 321 312 318 317 312 335 328 323 323 320 323 318 316 314 310 312 309 303 301 295 295 295 295 295 294 303
327 327 319 299 301 306 312 331 323 324 319 329 328 328 327 327 330 334 334 329 321 322 320 322 318 317 315 311 307 306 307 304 306 301 294 295 294 294
326 327 320 298 300 303 313 300 302 313 326 325 325 325 325 325 326 327 328 326 326 326 322 324 318 316 310 308 305 304 305 306 307 305 305 298 295 295
332 317 299 297 299 301 297 300 300 327 326 325 324 324 324 323 323 322 322 319 318 317 317 319 316 313 308 305 302 302 303 304 306 304 303 303 302 301
310 322 316 310 299 310 311 312 329 329 327 324 321 321 320 319 318 319 316 315 311 308 311 311 311 310 305 305 304 302 304 303 305 304 302 303 304 302
325 327 327 329 328 327 324 325 326 325 324 324 321 319 319 318 317 318 316 313 310 305 303 306 309 309 306 305 301 302 302 303 303 302 300 299 302 300
325 327 326 326 325 325 325 325 326 320 324 324 322 319 318 317 316 316 316 315 312 307 304 303 302 300 298 297 294 302 302 302 302 302 300 295 295 298
327 324 321 322 323 324 324 324 324 325 326 323 321 320 319 318 314 315 315 315 311 307 305 304 303 301 298 296 297 287 298 299 297 297 296 295 294 297
322 321 321 321 319 319 321 322 323 324 324 323 322 321 320 318 315 315 314 313 310 305 302 302 301 300 297 298 297 295 286 295 293 292 293 295 296 291
322 322 323 323 323 322 321 321 322 322 323 323 322 321 321 319 316 316 314 300 302 305 300 299 298 288 298 297 294 294 294 287 289 290 291 290 292 294
319 318 320 322 323 323 323 323 322 322 323 323 322 322 321 320 317 316 315 310 307 304 299 294 296 295 295 295 295 293 294 295 290 288 287 284 289 289
323 322 320 318 319 321 322 321 321 321 322 322 322 322 321 319 318 317 315 311 307 301 296 294 294 294 293 293 292 295 290 291 293 292 294 288 287 287
Wind_Speed
4 6 5 4 3 5 5 7 8 4 3 4 3 6 12 13 16 15 14 15 12 12 9 11 11 11 10 8 7 6 6 5 2 0 2 4 5 7
4 3 2 2 4 5 5 4 5 6 4 2 4 8 13 12 16 13 14 13 12 13 10 10 10 9 8 8 7 6 5 3 3 4 5 6 6 6
5 5 5 5 6 6 5 5 6 4 6 5 10 14 18 16 12 11 10 9 8 10 9 9 9 8 8 7 6 5 6 7 7 7 7 8 8 9
4 5 7 7 8 5 5 7 8 8 9 14 13 14 13 14 12 12 9 7 5 6 10 9 8 7 8 8 8 10 10 9 10 11 12 12 13 11
6 5 7 8 7 4 3 8 9 8 11 10 11 11 10 10 11 10 8 6 6 10 11 11 11 10 11 13 13 13 13 13 13 13 13 13 13 12
7 7 8 9 7 6 6 8 10 10 11 10 11 11 9 8 8 10 8 5 7 8 12 12 13 17 18 16 16 17 15 13 13 13 12 13 12 11
7 7 7 8 10 6 5 10 11 8 9 11 9 9 9 9 9 6 9 10 7 8 9 10 11 11 10 15 16 16 15 14 14 13 11 11 10 10
8 9 11 12 11 11 12 11 8 11 10 9 10 10 10 9 8 8 10 10 7 7 10 9 8 8 8 9 11 13 14 13 13 12 10 9 8 6
10 8 8 8 11 12 15 15 14 13 9 11 12 9 11 10 11 10 11 10 10 10 10 9 8 9 9 9 10 12 13 12 11 10 9 5 2 2
9 10 10 12 11 10 14 12 10 10 10 7 9 9 9 11 11 8 8 9 10 9 8 8 8 8 8 8 8 10 10 10 10 8 7 6 6 6
9 7 11 13 10 10 15 11 11 8 10 14 12 8 9 11 9 9 9 11 10 9 7 8 7 9 8 8 7 9 9 9 7 5 6 10 12 14
8 10 16 11 10 10 9 12 10 9 10 13 10 9 10 7 2 9 10 9 8 7 8 6 9 8 6 6 8 7 8 11 9 8 7 7 11 6
8 10 7 8 9 6 5 8 10 12 10 12 12 10 10 9 6 4 3 3 8 2 8 5 8 8 5 9 7 5 3 5 2 8 7 7 4 5
9 9 7 8 9 7 1 11 11 12 11 10 10 10 9 8 6 5 6 8 8 5 10 4 6 7 5 6 7 6 5 3 2 3 3 4 9 7
9 11 14 8 9 10 8 10 10 8 9 9 9 8 7 7 9 9 10 11 11 9 5 4 3 4 5 5 5 4 3 4 1 3 3 3 3 4
11 9 7 6 7 11 8 6 7 8 8 8 8 8 8 9 8 8 8 8 8 8 7 6 6 5 6 4 4 4 3 2 0 2 4 3 2 3
10 8 8 8 8 8 8 7 7 6 7 7 9 9 8 8 8 8 7 8 7 8 7 7 6 6 5 4 5 3 3 2 1 3 5 4 2 2
9 9 9 9 10 10 9 9 8 8 8 8 8 9 9 9 9 8 8 7 7 7 8 8 8 7 6 5 15 1 2 1 1 2 3 4 5 3
9 9 8 9 9 10 10 10 10 9 9 8 9 9 9 9 9 8 9 7 7 7 8 8 8 7 7 5 5 9 5 2 4 3 4 4 6 4
9 9 9 9 9 10 10 10 10 9 9 9 9 9 9 10 10 10 9 9 9 8 8 7 7 5 4 2 2 5 7 4 3 4 5 6 6 2
10 9 8 9 9 10 10 10 10 10 10 10 10 10 11 11 11 10 10 10 10 10 10 8 5 4 5 7 5 4 4 3 2 3 6 7 6 6
12 12 11 10 10 11 10 10 11 10 11 11 11 11 11 11 11 11 10 10 11 10 8 8 9 5 4 3 2 3 2 1 8 9 6 3 4 5
13 13 12 12 12 11 11 11 12 12 12 12 12 11 11 12 12 11 12 12 12 10 11 10 7 4 5 7 1 2 2 4 4 5 7 17 12 12
Wind_Direction
130 165 211 239 220 137 152 164 145 141 117 134 110 108 127 133 130 124 127 129 123 120 114 121 127 133 139 130 138 128 121 106 93 40 321 306 313 322
179 222 230 161 125 124 143 132 114 107 115 82 101 139 126 117 114 118 125 127 117 122 128 128 126 128 122 126 126 128 130 105 51 25 31 24 19 7
159 174 149 151 116 126 125 121 115 109 107 117 126 118 121 126 123 119 115 108 106 115 127 120 111 116 127 138 127 105 80 70 73 69 61 57 57 56
126 157 163 150 127 141 140 145 131 104 122 116 126 122 125 120 121 112 107 106 112 121 113 113 118 115 110 102 92 87 86 92 88 85 83 79 71 65
159 140 139 155 112 113 146 143 131 126 129 123 120 112 111 119 114 110 110 100 115 109 97 87 85 88 85 89 91 90 85 83 82 81 78 74 71 60
140 150 139 133 140 121 128 127 130 127 129 131 118 121 123 116 112 117 113 122 123 103 67 83 93 88 91 91 95 94 91 90 80 73 71 66 61 57
112 103 86 85 108 127 128 128 127 132 124 132 126 120 123 128 131 126 125 129 135 126 126 129 121 112 102 83 96 94 88 81 74 70 70 71 66 57
107 95 100 104 85 75 84 82 112 130 121 127 129 134 131 122 126 138 133 138 127 158 131 118 123 106 92 90 89 82 80 80 76 65 61 68 71 82
105 114 108 114 121 106 88 86 79 80 101 130 129 129 122 138 144 165 154 164 138 140 130 127 126 106 105 101 74 82 79 74 70 62 50 51 85 82
126 131 136 122 113 126 113 95 79 87 107 120 120 124 131 146 170 152 148 99 113 152 148 132 137 121 117 106 80 86 84 86 74 61 41 14 352 331
123 110 116 102 108 102 118 100 94 84 69 93 101 115 154 169 163 133 145 150 155 155 195 141 152 141 147 133 129 132 121 105 108 100 57 22 350 306
111 100 69 95 99 114 115 121 114 124 126 127 126 122 118 100 144 195 180 167 159 159 158 168 154 154 165 164 157 171 161 174 172 149 109 66 6 2
120 118 116 106 98 100 151 128 127 135 134 138 144 143 143 153 158 167 224 160 170 136 142 183 177 190 245 146 165 168 177 152 165 162 152 140 115 16
139 139 128 102 84 49 41 108 130 153 141 144 145 148 152 147 130 112 73 56 47 85 147 221 181 198 191 160 167 164 164 131 8 17 349 126 180 202
158 123 119 120 115 88 102 132 174 149 146 148 147 148 147 121 127 123 113 106 90 88 101 183 187 152 179 185 152 133 195 158 32 7 339 348 350 341
124 124 133 121 47 99 145 189 174 162 162 150 150 133 133 159 159 148 144 142 126 110 86 100 124 152 134 125 145 149 151 170 73 38 319 296 304 357
139 153 171 179 171 163 163 180 155 158 175 156 152 161 164 164 160 165 159 161 159 155 146 136 102 86 85 130 148 155 148 135 55 16 300 314 310 22
185 178 181 182 183 181 179 182 185 188 185 171 170 178 174 177 171 177 181 192 171 167 153 148 154 137 141 91 14 91 139 121 31 290 304 323 310 342
211 189 189 191 195 190 194 195 196 192 190 190 186 189 185 190 173 184 191 186 174 166 163 169 181 205 196 201 122 29 320 22 336 332 330 320 303 320
229 201 203 199 204 203 205 205 204 190 200 202 198 195 194 193 190 193 191 187 179 173 172 180 187 175 167 49 121 100 11 355 347 330 315 304 286 155
213 228 214 211 208 211 209 212 210 207 199 204 202 200 199 201 196 202 194 188 176 175 175 163 119 307 113 121 138 173 136 106 357 319 327 310 314 298
211 217 218 218 215 216 214 214 209 205 197 209 208 205 204 207 205 204 198 182 187 179 165 133 156 155 143 114 144 173 197 153 189 201 208 230 326 309
217 214 213 212 214 215 214 211 213 210 211 212 212 211 206 205 211 201 197 184 186 166 161 156 153 158 132 96 177 220 253 285 307 283 223 192 208 227